IZ1GCT Weather Reports


Display with metric or nautical units.
time (UTC)temp
F
wind
direction
speed
MPH
gust
MPH
rain 1hr
in
rain 24hr
in
rain mn
in
humidity
%
barometer
mb
20260506135052 68 135 13.0 21.0 0.00 0.19 0.19 31 1009.6
20260506134551 69 135 12.0 17.0 0.00 0.19 0.19 30 1009.5
20260506134050 70 135 12.0 15.0 0.00 0.19 0.19 30 1009.5
20260506133552 71 135 3.0 10.0 0.00 0.19 0.19 32 1009.5
20260506133051 70 135 8.0 12.0 0.00 0.19 0.19 30 1009.6
20260506132551 70 151 5.0 15.0 0.00 0.19 0.19 30 1009.5
20260506132052 71 147 1.0 2.0 0.00 0.19 0.19 31 1009.6
20260506131551 69 135 7.0 8.0 0.00 0.19 0.19 31 1009.7
20260506131050 69 152 8.0 10.0 0.00 0.19 0.19 31 1009.7
20260506130552 70 135 8.0 10.0 0.00 0.19 0.19 37 1009.7
20260506130051 70 135 9.0 10.0 0.00 0.19 0.19 45 1009.9
20260506125551 69 135 3.0 5.0 0.00 0.19 0.19 50 1009.8
20260506125052 69 135 8.0 10.0 0.00 0.19 0.19 50 1009.9
20260506124551 68 139 2.0 5.0 0.00 0.19 0.19 50 1009.7
20260506124051 67 121 2.0 6.0 0.00 0.19 0.19 52 1009.7
20260506123550 67 143 3.0 5.0 0.00 0.19 0.19 54 1009.8
20260506123051 65 141 2.0 3.0 0.00 0.19 0.19 54 1009.9
20260506122552 65 135 3.0 5.0 0.00 0.19 0.19 55 1009.8
20260506122052 65 135 2.0 3.0 0.00 0.19 0.19 53 1009.7
20260506121551 65 135 5.0 6.0 0.00 0.19 0.19 55 1009.7
20260506121051 65 132 5.0 6.0 0.00 0.19 0.19 54 1009.5
20260506120551 66 158 6.0 10.0 0.00 0.19 0.19 53 1009.5
20260506120050 66 158 2.0 3.0 0.00 0.20 0.19 55 1009.5
20260506115552 65 119 3.0 7.0 0.00 0.20 0.19 55 1009.4
20260506115051 65 117 5.0 6.0 0.00 0.20 0.19 53 1009.4
20260506114551 66 136 7.0 9.0 0.00 0.20 0.19 52 1009.2
20260506114052 67 117 7.0 10.0 0.00 0.20 0.19 53 1009.2
20260506113551 67 117 7.0 10.0 0.00 0.20 0.19 51 1009.2
20260506113051 67 123 5.0 7.0 0.00 0.20 0.19 52 1009.3
20260506112550 66 152 7.0 9.0 0.00 0.20 0.19 53 1009.2
20260506112052 65 135 5.0 8.0 0.00 0.20 0.19 52 1009.2
20260506111551 66 120 9.0 12.0 0.00 0.20 0.19 53 1009.2
20260506111051 66 114 8.0 10.0 0.00 0.20 0.19 52 1009.2
20260506110551 67 121 7.0 8.0 0.00 0.20 0.19 52 1009.3
20260506110052 67 135 7.0 8.0 0.00 0.20 0.19 51 1009.4
20260506105551 67 152 3.0 6.0 0.00 0.20 0.19 51 1009.5
20260506105052 67 135 3.0 6.0 0.00 0.20 0.19 53 1009.6
20260506104551 67 116 5.0 7.0 0.00 0.20 0.19 51 1009.5
20260506104051 68 144 2.0 3.0 0.00 0.20 0.19 53 1009.6
20260506103551 66 135 3.0 5.0 0.00 0.20 0.19 51 1009.7
20260506103051 67 135 2.0 5.0 0.00 0.20 0.19 52 1009.9
20260506102550 66 146 3.0 6.0 0.00 0.20 0.19 54 1009.8
20260506102052 67 151 5.0 6.0 0.00 0.20 0.19 52 1009.9
20260506101550 67 135 3.0 3.0 0.00 0.20 0.19 50 1010.0
20260506101051 66 135 2.0 3.0 0.00 0.20 0.19 51 1010.1
20260506100551 65 136 3.0 6.0 0.00 0.20 0.19 56 1010.2
20260506100051 64 112 3.0 6.0 0.00 0.20 0.19 58 1010.2
20260506095551 64 135 2.0 3.0 0.00 0.20 0.19 56 1010.5
20260506095052 64 132 1.0 3.0 0.00 0.20 0.19 59 1010.4
20260506094551 63 112 1.0 1.0 0.00 0.20 0.19 60 1010.5
20260506094051 63 146 2.0 3.0 0.00 0.20 0.19 63 1010.5
20260506093552 62 112 2.0 3.0 0.00 0.20 0.19 63 1010.6
20260506093051 62 144 2.0 3.0 0.00 0.20 0.19 64 1010.6
20260506092551 61 135 1.0 2.0 0.00 0.20 0.19 61 1010.6
20260506092050 62 149 2.0 3.0 0.00 0.20 0.19 66 1010.7
20260506091552 61 134 2.0 3.0 0.00 0.20 0.19 66 1010.7
20260506091051 61 129 1.0 2.0 0.00 0.20 0.19 68 1010.7
20260506090552 61 158 1.0 1.0 0.00 0.20 0.19 65 1010.8
20260506090051 60 135 1.0 3.0 0.00 0.20 0.19 62 1010.9
20260506085551 61 135 3.0 6.0 0.00 0.20 0.19 61 1010.8
20260506085052 61 135 3.0 6.0 0.00 0.20 0.19 62 1010.9
20260506084551 62 135 3.0 6.0 0.00 0.20 0.19 68 1010.8
20260506084052 61 135 2.0 3.0 0.01 0.20 0.19 70 1010.9
20260506083551 59 142 2.0 3.0 0.01 0.20 0.19 70 1010.9
20260506083051 58 135 2.0 6.0 0.01 0.20 0.19 69 1011.0
20260506082552 58 135 6.0 8.0 0.01 0.20 0.19 69 1011.1
20260506082052 58 135 3.0 5.0 0.01 0.20 0.19 71 1011.0
20260506081550 58 135 3.0 6.0 0.01 0.20 0.19 73 1011.0
20260506081053 57 135 3.0 5.0 0.01 0.20 0.19 78 1011.1
20260506080551 56 135 5.0 6.0 0.01 0.20 0.19 80 1011.2
20260506073053 54 135 1.0 2.0 0.00 0.19 0.18 90 1011.1
20260506072551 54 135 0.0 0.0 0.00 0.19 0.18 89 1011.1
20260506072052 54 135 1.0 2.0 0.00 0.19 0.18 89 1011.1
20260506071552 54 135 3.0 6.0 0.00 0.19 0.18 89 1011.0
20260506071052 54 135 3.0 5.0 0.00 0.19 0.18 86 1011.0
20260506070551 55 135 1.0 1.0 0.01 0.19 0.18 86 1011.1
20260506062051 53 135 2.0 3.0 0.02 0.19 0.18 97 1011.1
20260506061552 52 158 3.0 6.0 0.02 0.19 0.18 96 1011.0
20260506061052 52 148 2.0 3.0 0.04 0.19 0.18 96 1011.0
20260506060551 52 135 3.0 6.0 0.04 0.18 0.17 97 1011.2
20260506051051 52 158 3.0 9.0 0.12 0.15 0.14 99 1011.1
20260506050550 52 112 5.0 6.0 0.12 0.14 0.13 99 1011.0
20260506045051 52 135 7.0 12.0 0.08 0.11 0.09 99 1011.2
20260506044550 52 120 7.0 13.0 0.08 0.11 0.09 99 1011.1
20260506044053 52 127 8.0 13.0 0.07 0.09 0.08 99 1011.0
20260506043551 52 135 9.0 14.0 0.06 0.08 0.07 99 1011.2
20260506043051 52 133 10.0 13.0 0.05 0.08 0.06 99 1011.2
20260506042552 52 143 6.0 8.0 0.04 0.07 0.05 99 1011.3
20260506042052 52 121 3.0 8.0 0.02 0.07 0.04 99 1011.2
20260506041551 52 147 2.0 7.0 0.04 0.08 0.04 99 1011.3
20260506041051 52 149 5.0 8.0 0.02 0.07 0.02 99 1011.2
20260506040552 52 156 2.0 6.0 0.01 0.06 0.01 99 1011.2
20260506035556 52 124 8.0 10.0 0.01 0.08 0.01 99 1011.2
20260506035056 52 135 5.0 6.0 0.01 0.08 0.01 99 1011.2
20260506034556 52 135 2.0 3.0 0.01 0.08 0.01 99 1011.3
20260506034056 52 135 3.0 7.0 0.01 0.09 0.01 99 1011.3
20260506033557 52 158 2.0 3.0 0.01 0.09 0.01 99 1011.4
20260506033056 52 144 2.0 5.0 0.01 0.11 0.01 99 1011.5
20260506032557 52 138 5.0 8.0 0.01 0.11 0.01 99 1011.4
20260506032056 52 139 3.0 6.0 0.01 0.11 0.01 99 1011.5
20260506031555 52 149 6.0 13.0 0.00 0.09 0.00 99 1011.5
20260506031057 52 117 7.0 12.0 0.00 0.11 0.00 99 1011.7
20260506030556 52 135 8.0 10.0 0.00 0.11 0.00 99 1011.8
20260506030055 52 158 3.0 5.0 0.00 0.12 0.00 99 1011.9
20260506025557 52 135 3.0 6.0 0.00 0.12 0.00 99 1012.1
20260506025056 52 147 6.0 7.0 0.00 0.12 0.00 99 1012.2
20260506024556 52 117 5.0 8.0 0.00 0.13 0.00 99 1012.3
20260506024055 52 129 5.0 6.0 0.00 0.13 0.00 99 1012.2
20260506023556 52 135 5.0 7.0 0.00 0.14 0.00 99 1012.2
20260506023056 52 135 5.0 6.0 0.00 0.14 0.00 99 1012.1
20260506022555 52 135 3.0 5.0 0.00 0.14 0.00 99 1012.1
20260506022056 52 135 5.0 7.0 0.00 0.15 0.00 99 1012.3
20260506021556 52 152 3.0 9.0 0.00 0.17 0.00 99 1012.5
20260506021055 52 122 3.0 5.0 0.00 0.17 0.00 99 1012.5
20260506020557 52 157 3.0 6.0 0.00 0.17 0.00 99 1012.7
20260506020056 52 135 3.0 3.0 0.00 0.17 0.00 99 1012.6
20260506015555 52 120 2.0 3.0 0.00 0.17 0.00 99 1012.6
20260506015057 52 139 3.0 6.0 0.00 0.17 0.00 98 1012.7
20260506014556 52 158 2.0 5.0 0.00 0.17 0.00 98 1012.7
20260506014056 52 139 2.0 3.0 0.00 0.17 0.00 98 1012.6
20260506013557 52 114 1.0 3.0 0.00 0.17 0.00 98 1012.7
20260506013056 53 135 2.0 3.0 0.00 0.17 0.00 97 1012.7
20260506012558 53 135 3.0 5.0 0.00 0.17 0.00 97 1012.7
20260506012057 53 132 2.0 5.0 0.00 0.17 0.00 97 1012.8
20260506011556 53 124 2.0 3.0 0.00 0.17 0.00 97 1012.8
20260506011056 53 135 3.0 5.0 0.00 0.17 0.00 96 1012.9
20260506010557 53 116 1.0 2.0 0.00 0.17 0.00 96 1013.0
20260506010057 53 135 1.0 2.0 0.00 0.17 0.00 96 1013.1
20260506005556 53 135 1.0 2.0 0.00 0.17 0.00 95 1013.3
20260506005057 53 135 2.0 3.0 0.00 0.17 0.00 95 1013.4
20260506004557 53 155 1.0 2.0 0.00 0.17 0.00 95 1013.6
20260506004056 53 128 2.0 3.0 0.00 0.17 0.00 95 1013.7
20260506003558 53 135 1.0 1.0 0.00 0.17 0.00 94 1013.7
20260506003057 53 158 0.0 1.0 0.00 0.17 0.00 94 1013.7
20260506002557 53 158 2.0 3.0 0.00 0.17 0.00 94 1013.8
20260506002056 53 135 1.0 2.0 0.00 0.17 0.00 94 1013.8
20260506001557 53 158 1.0 1.0 0.00 0.17 0.00 93 1014.0
20260506001056 53 158 0.0 1.0 0.00 0.17 0.00 93 1014.0
20260506000557 53 158 0.0 0.0 0.00 0.17 0.00 93 1014.1
20260506000057 53 158 0.0 1.0 0.00 0.17 0.00 93 1014.1
20260505235556 53 158 0.0 1.0 0.00 0.17 0.00 94 1014.2
20260505235056 53 112 0.0 0.0 0.00 0.17 0.00 94 1014.1
20260505234557 53 112 1.0 1.0 0.00 0.17 0.00 94 1014.2
20260505234056 53 135 0.0 0.0 0.00 0.17 0.00 94 1014.4
20260505233556 53 135 1.0 1.0 0.00 0.17 0.00 94 1014.4
20260505233057 53 145 2.0 3.0 0.00 0.17 0.00 94 1014.5
20260505232557 53 158 1.0 2.0 0.00 0.17 0.00 94 1014.5
20260505232057 53 151 3.0 5.0 0.00 0.17 0.00 94 1014.6
20260505231556 53 158 1.0 2.0 0.00 0.17 0.00 94 1014.5
20260505231057 53 158 1.0 2.0 0.00 0.17 0.00 94 1014.7
20260505230557 53 158 0.0 1.0 0.00 0.18 0.00 94 1014.8
20260505230057 53 158 0.0 0.0 0.00 0.18 0.00 94 1014.8
20260505225557 53 137 0.0 0.0 0.00 0.18 0.00 94 1014.7
20260505225057 53 135 1.0 1.0 0.00 0.18 0.00 94 1014.7
20260505224556 53 135 0.0 1.0 0.00 0.18 0.00 94 1014.7
20260505224057 53 135 1.0 2.0 0.00 0.18 0.00 94 1014.7
20260505223557 53 135 1.0 2.0 0.00 0.18 0.00 94 1014.6
20260505223057 53 135 0.0 1.0 0.00 0.18 0.00 94 1014.7
20260505222556 53 135 0.0 0.0 0.00 0.18 0.00 94 1014.6
20260505222057 53 135 0.0 1.0 0.00 0.18 0.00 95 1014.9
20260505221557 53 135 0.0 0.0 0.00 0.18 0.00 95 1015.0
20260505221056 53 152 3.0 5.0 0.00 0.18 0.00 95 1014.9
20260505220556 53 158 3.0 6.0 0.00 0.18 0.00 95 1015.1
20260505220057 53 158 1.0 2.0 0.00 0.18 0.00 95 1014.9
20260505215557 53 158 1.0 1.0 0.00 0.18 0.18 95 1015.2
20260505215056 53 135 2.0 3.0 0.00 0.18 0.18 95 1015.1
20260505214558 52 135 0.0 1.0 0.00 0.18 0.18 95 1015.1
20260505214057 53 158 0.0 0.0 0.00 0.18 0.18 95 1015.0
20260505213556 53 158 0.0 0.0 0.00 0.18 0.18 95 1015.0
20260505213056 52 158 0.0 0.0 0.00 0.18 0.18 95 1015.1
20260505212557 52 158 1.0 1.0 0.00 0.18 0.18 94 1015.2
20260505212057 52 158 2.0 3.0 0.00 0.19 0.18 94 1015.2
20260505211556 52 135 0.0 0.0 0.00 0.19 0.18 94 1015.2
20260505211057 52 135 0.0 1.0 0.00 0.19 0.18 94 1015.4
20260505210557 52 158 1.0 1.0 0.00 0.19 0.18 94 1015.5
20260505210056 52 158 0.0 0.0 0.00 0.20 0.18 93 1015.4
20260505205556 52 158 1.0 2.0 0.00 0.20 0.18 93 1015.5
20260505205058 52 158 0.0 1.0 0.00 0.20 0.18 93 1015.5
20260505204557 52 158 1.0 2.0 0.00 0.20 0.18 92 1015.5
20260505204056 52 136 2.0 3.0 0.00 0.20 0.18 92 1015.6
20260505203557 52 158 2.0 3.0 0.00 0.20 0.18 92 1015.5
20260505203056 53 158 0.0 0.0 0.00 0.21 0.18 92 1015.5
20260505202557 53 158 0.0 0.0 0.00 0.21 0.18 92 1015.5
20260505202057 53 158 0.0 0.0 0.00 0.21 0.18 92 1015.4
20260505201556 53 158 0.0 0.0 0.00 0.21 0.18 92 1015.4
20260505201057 53 158 0.0 0.0 0.00 0.21 0.18 92 1015.4
20260505200557 53 158 1.0 2.0 0.00 0.21 0.18 92 1015.4
20260505200056 53 158 1.0 2.0 0.00 0.24 0.18 92 1015.4
20260505195556 53 158 1.0 2.0 0.00 0.24 0.18 92 1015.4
20260505195057 54 158 0.0 0.0 0.00 0.24 0.18 91 1015.4
20260505194557 54 158 2.0 3.0 0.00 0.25 0.18 91 1015.4
20260505194056 54 158 0.0 1.0 0.00 0.25 0.18 91 1015.2
20260505193557 54 158 1.0 1.0 0.00 0.26 0.18 91 1015.2
20260505193057 54 158 1.0 2.0 0.00 0.26 0.18 90 1015.1
20260505192556 54 158 1.0 2.0 0.00 0.27 0.18 90 1015.2
20260505192057 54 158 1.0 1.0 0.00 0.27 0.18 88 1015.2
20260505191556 55 158 0.0 0.0 0.00 0.27 0.18 84 1015.2
20260505191056 55 158 1.0 1.0 0.00 0.27 0.18 84 1015.2
20260505190557 55 158 0.0 1.0 0.00 0.27 0.18 83 1015.2
20260505190056 55 158 0.0 1.0 0.00 0.28 0.18 83 1015.2
20260505185557 55 158 1.0 1.0 0.00 0.28 0.18 83 1015.2
20260505185057 55 158 2.0 3.0 0.00 0.28 0.18 82 1015.1
20260505184556 55 158 1.0 2.0 0.00 0.28 0.18 81 1015.1
20260505184056 55 158 1.0 2.0 0.00 0.28 0.18 81 1015.0
20260505183557 56 158 1.0 1.0 0.00 0.28 0.18 81 1015.1
20260505183057 56 158 0.0 0.0 0.00 0.30 0.18 80 1015.1
20260505182556 56 158 0.0 1.0 0.00 0.30 0.18 80 1015.0
20260505182057 56 158 0.0 1.0 0.00 0.31 0.18 80 1015.1
20260505181556 53 164 0.0 1.0 0.00 0.31 0.18 78 1013.6
20260505181057 56 135 0.0 0.0 0.00 0.32 0.18 78 1015.0
20260505180557 56 149 0.0 1.0 0.00 0.33 0.18 78 1015.0
20260505180057 56 158 0.0 0.0 0.00 0.33 0.18 78 1014.8
20260505175556 56 135 0.0 1.0 0.00 0.34 0.18 78 1014.9
20260505175058 57 135 0.0 1.0 0.00 0.34 0.18 76 1014.9
20260505174557 57 141 0.0 1.0 0.00 0.35 0.18 75 1014.9
20260505174058 57 158 0.0 1.0 0.00 0.35 0.18 74 1014.8
20260505173557 57 135 0.0 1.0 0.00 0.37 0.18 74 1014.8
20260505173058 57 135 0.0 1.0 0.00 0.37 0.18 73 1014.8
20260505172556 57 135 1.0 1.0 0.00 0.37 0.18 73 1014.9
20260505172057 58 135 0.0 1.0 0.00 0.38 0.18 73 1014.9
20260505171556 58 119 0.0 1.0 0.00 0.39 0.18 73 1015.0
20260505171055 58 135 0.0 1.0 0.00 0.39 0.18 72 1014.9
20260505170557 58 135 2.0 3.0 0.00 0.40 0.18 72 1014.8
20260505170056 58 135 1.0 1.0 0.00 0.40 0.18 72 1015.0
20260505165555 58 158 1.0 3.0 0.00 0.41 0.18 72 1014.9
20260505165057 58 141 2.0 3.0 0.00 0.41 0.18 72 1014.9
20260505164557 58 120 0.0 1.0 0.00 0.41 0.18 72 1015.0
20260505164058 58 158 2.0 3.0 0.00 0.43 0.18 72 1015.1
20260505163557 58 135 2.0 3.0 0.00 0.43 0.18 72 1015.1
20260505163057 58 135 1.0 1.0 0.00 0.43 0.18 72 1015.2
20260505162556 58 135 0.0 1.0 0.00 0.43 0.18 72 1015.2
20260505162058 58 135 1.0 2.0 0.00 0.43 0.18 71 1015.2
20260505161557 57 135 3.0 6.0 0.00 0.43 0.18 70 1015.2
20260505161056 58 135 0.0 2.0 0.00 0.43 0.18 71 1015.0
20260505160555 59 129 2.0 6.0 0.00 0.43 0.18 71 1015.0
20260505153050 59 158 2.0 3.0 0.00 0.43 0.18 71 1014.9
20260505152549 59 135 1.0 2.0 0.00 0.43 0.18 71 1015.0
20260505152050 59 136 1.0 2.0 0.00 0.43 0.18 71 1015.0
20260505151549 59 129 2.0 3.0 0.00 0.43 0.18 71 1015.0
20260505151048 59 135 2.0 3.0 0.00 0.43 0.18 71 1015.0
20260505150548 59 158 1.0 2.0 0.00 0.43 0.18 71 1015.1
20260505140548 60 158 1.0 3.0 0.00 0.44 0.18 69 1015.6